,,Stat6,,Stat2,,Stat8,,Stat9,,Stat10,,Wind1,,Wind1,
time,status,PA1M_AVG,status,PR1M_SUM,status,RH1M_AVG,status,SR1M_AVG,status,TA1M_AVG,status,W1dAve1m,status,W1sAve1m,
2004-01-17, 00:00:00,VALID,918.165,VALID,0,VALID,97.5397,VALID,-0.0339617,VALID,20.5444,VALID,139,VALID,0.485938,
2004-01-17, 00:01:00,VALID,918.151,VALID,0,VALID,97.5931,VALID,-0.0509425,VALID,20.5183,VALID,142,VALID,0.511433,
2004-01-17, 00:02:00,VALID,918.134,VALID,0,VALID,97.6986,VALID,0,VALID,20.5115,VALID,143,VALID,0.587713,
2004-01-17, 00:03:00,VALID,918.13,VALID,0,VALID,97.6414,VALID,-0.0169808,VALID,20.4986,VALID,143,VALID,0.450521,
2004-01-17, 00:04:00,VALID,918.134,VALID,0,VALID,97.6109,VALID,-0.0169808,VALID,20.4997,VALID,142,VALID,0.471354,
2004-01-17, 00:05:00,VALID,918.147,VALID,0,VALID,97.4965,VALID,-0.0509425,VALID,20.473,VALID,138,VALID,0.856213,
2004-01-17, 00:06:00,VALID,918.152,VALID,0,VALID,97.5817,VALID,-0.0339617,VALID,20.4504,VALID,138,VALID,0.930051,
2004-01-17, 00:07:00,VALID,918.133,VALID,0,VALID,97.6389,VALID,0,VALID,20.4343,VALID,138,VALID,0.890224,
2004-01-17, 00:08:00,VALID,918.12,VALID,0,VALID,97.6287,VALID,-0.0169808,VALID,20.4079,VALID,129,VALID,0.790396,
2004-01-17, 00:09:00,VALID,918.09,VALID,0,VALID,97.7101,VALID,0,VALID,20.3826,VALID,106,VALID,0.82758,
2004-01-17, 00:10:00,VALID,918.064,VALID,0,VALID,97.7165,VALID,-0.0169808,VALID,20.3829,VALID,54,VALID,0.232376,
2004-01-17, 00:11:00,VALID,918.042,VALID,0,VALID,97.5664,VALID,-0.0339617,VALID,20.3277,VALID,51,VALID,0.45476,
2004-01-17, 00:12:00,VALID,918.038,VALID,0,VALID,97.4151,VALID,-0.0339617,VALID,20.2957,VALID,44,VALID,0.519622,
2004-01-17, 00:13:00,VALID,918.02,VALID,0,VALID,96.8963,VALID,0,VALID,20.2087,VALID,44,VALID,0.708394,
2004-01-17, 00:14:00,VALID,918.018,VALID,0,VALID,97.1633,VALID,-0.0509425,VALID,20.1603,VALID,47,VALID,0.832613,
2004-01-17, 00:15:00,VALID,918.03,VALID,0,VALID,97.6211,VALID,0,VALID,20.1595,VALID,52,VALID,0.984375,
2004-01-17, 00:16:00,VALID,918.043,VALID,0,VALID,98.0445,VALID,-0.0339617,VALID,20.2025,VALID,55,VALID,0.995206,
2004-01-17, 00:17:00,VALID,918.061,VALID,0,VALID,98.398,VALID,0,VALID,20.2443,VALID,65,VALID,0.869444,
2004-01-17, 00:18:00,VALID,918.073,VALID,0,VALID,98.6078,VALID,-0.0509425,VALID,20.2626,VALID,71,VALID,0.78452,
2004-01-17, 00:19:00,VALID,918.084,VALID,0,VALID,98.7363,VALID,-0.0169808,VALID,20.3118,VALID,73,VALID,0.669085,
2004-01-17, 00:20:00,VALID,918.079,VALID,0,VALID,98.693,VALID,-0.0339617,VALID,20.3379,VALID,74,VALID,0.498365,
2004-01-17, 00:21:00,VALID,918.081,VALID,0,VALID,98.4222,VALID,-0.0169808,VALID,20.3218,VALID,77,VALID,0.477539,
2004-01-17, 00:22:00,VALID,918.078,VALID,0,VALID,98.1628,VALID,-0.0339617,VALID,20.2924,VALID,91,VALID,0.543605,
2004-01-17, 00:23:00,VALID,918.068,VALID,0,VALID,98.2582,VALID,0,VALID,20.2693,VALID,103,VALID,0.568788,
2004-01-17, 00:24:00,VALID,918.068,VALID,0,VALID,98.1806,VALID,0,VALID,20.2567,VALID,103,VALID,0.38205,
2004-01-17, 00:25:00,VALID,918.049,VALID,0,VALID,97.5524,VALID,0,VALID,20.1727,VALID,84,VALID,0.54742,
2004-01-17, 00:26:00,VALID,918.032,VALID,0,VALID,97.2828,VALID,-0.0169808,VALID,20.1014,VALID,64,VALID,0.643999,
2004-01-17, 00:27:00,VALID,918.016,VALID,0,VALID,96.792,VALID,0,VALID,20.0112,VALID,59,VALID,0.739583,
2004-01-17, 00:28:00,VALID,918,VALID,0,VALID,96.9649,VALID,-0.0169808,VALID,19.9536,VALID,56,VALID,0.737723,
2004-01-17, 00:29:00,VALID,917.984,VALID,0,VALID,97.616,VALID,0,VALID,19.9539,VALID,52,VALID,0.742188,
2004-01-17, 00:30:00,VALID,917.976,VALID,0,VALID,97.5537,VALID,-0.0509425,VALID,19.9022,VALID,44,VALID,0.734375,
2004-01-17, 00:31:00,VALID,917.979,VALID,0,VALID,97.5155,VALID,-0.0509425,VALID,19.8244,VALID,44,VALID,0.65439,
2004-01-17, 00:32:00,VALID,917.954,VALID,0,VALID,97.4736,VALID,-0.0509425,VALID,19.7531,VALID,44,VALID,0.585379,
2004-01-17, 00:33:00,VALID,917.961,VALID,0,VALID,97.3604,VALID,-0.0339617,VALID,19.6886,VALID,44,VALID,0.622142,
2004-01-17, 00:34:00,VALID,917.944,VALID,0,VALID,98.3751,VALID,-0.0679233,VALID,19.7531,VALID,44,VALID,0.613554,
2004-01-17, 00:35:00,VALID,917.921,VALID,0,VALID,99.0936,VALID,-0.0169808,VALID,19.8535,VALID,46,VALID,0.613095,
2004-01-17, 00:36:00,VALID,917.911,VALID,0,VALID,99.6938,VALID,-0.0339617,VALID,20.0152,VALID,64,VALID,0.682478,
2004-01-17, 00:37:00,VALID,917.893,VALID,0,VALID,99.8108,VALID,-0.0509425,VALID,20.1506,VALID,75,VALID,0.731771,
2004-01-17, 00:38:00,VALID,917.891,VALID,0,VALID,99.7993,VALID,-0.0339617,VALID,20.2545,VALID,79,VALID,0.77934,
2004-01-17, 00:39:00,VALID,917.874,VALID,0,VALID,99.6925,VALID,-0.0169808,VALID,20.2959,VALID,79,VALID,0.753495,
2004-01-17, 00:40:00,VALID,917.863,VALID,0,VALID,99.4675,VALID,-0.0509425,VALID,20.3411,VALID,79,VALID,0.673118,
2004-01-17, 00:41:00,VALID,917.829,VALID,0,VALID,99.1432,VALID,-0.0169808,VALID,20.357,VALID,79,VALID,0.630814,
2004-01-17, 00:42:00,VALID,917.807,VALID,0,VALID,98.8978,VALID,-0.0679233,VALID,20.374,VALID,79,VALID,0.718941,
2004-01-17, 00:43:00,VALID,917.794,VALID,0,VALID,98.6333,VALID,-0.0169808,VALID,20.3635,VALID,79,VALID,0.65968,
2004-01-17, 00:44:00,VALID,917.778,VALID,0,VALID,98.4883,VALID,-0.0169808,VALID,20.364,VALID,79,VALID,0.542597,
2004-01-17, 00:45:00,VALID,917.755,VALID,0,VALID,97.9682,VALID,-0.0679233,VALID,20.3317,VALID,89,VALID,0.612038,
2004-01-17, 00:46:00,VALID,917.733,VALID,0,VALID,97.3502,VALID,-0.0509425,VALID,20.2547,VALID,122,VALID,0.838867,
2004-01-17, 00:47:00,VALID,917.709,VALID,0,VALID,97.4965,VALID,-0.0339617,VALID,20.1866,VALID,135,VALID,0.964258,
2004-01-17, 00:48:00,VALID,917.701,VALID,0,VALID,97.6122,VALID,-0.0169808,VALID,20.1578,VALID,135,VALID,0.836868,
2004-01-17, 00:49:00,VALID,917.683,VALID,0,VALID,97.7864,VALID,-0.0509425,VALID,20.1317,VALID,146,VALID,0.628657,
2004-01-17, 00:50:00,VALID,917.675,VALID,0,VALID,97.9364,VALID,-0.0169808,VALID,20.1019,VALID,122,VALID,0.752907,
2004-01-17, 00:51:00,VALID,917.659,VALID,0,VALID,98.0229,VALID,-0.0339617,VALID,20.0994,VALID,122,VALID,0.851563,
2004-01-17, 00:52:00,VALID,917.643,VALID,0,VALID,98.0763,VALID,-0.0509425,VALID,20.0733,VALID,122,VALID,0.883681,
2004-01-17, 00:53:00,VALID,917.633,VALID,0,VALID,98.0127,VALID,-0.0169808,VALID,20.0368,VALID,122,VALID,0.851944,
2004-01-17, 00:54:00,VALID,917.604,VALID,0,VALID,98.1704,VALID,-0.0169808,VALID,20.0077,VALID,124,VALID,0.981318,
2004-01-17, 00:55:00,VALID,917.574,VALID,0,VALID,98.4349,VALID,0,VALID,20.0187,VALID,124,VALID,0.887005,
2004-01-17, 00:56:01,VALID,917.556,VALID,0,VALID,98.7922,VALID,-0.0169808,VALID,20.0276,VALID,124,VALID,0.805233,
2004-01-17, 00:57:00,VALID,917.535,VALID,0,VALID,99.0885,VALID,-0.0339617,VALID,20.0607,VALID,124,VALID,0.7625,
2004-01-17, 00:58:00,VALID,917.513,VALID,0,VALID,99.1877,VALID,-0.0169808,VALID,20.0801,VALID,124,VALID,0.740473,
2004-01-17, 00:59:00,VALID,917.506,VALID,0,VALID,99.1839,VALID,-0.0339617,VALID,20.0806,VALID,124,VALID,0.664608,
2004-01-17, 01:00:01,VALID,917.498,VALID,0,VALID,99.1076,VALID,-0.0509425,VALID,20.0614,VALID,125,VALID,0.697731,
2004-01-17, 01:01:00,VALID,917.488,VALID,0,VALID,99.1038,VALID,-0.0509425,VALID,20.0284,VALID,134,VALID,0.401989,
2004-01-17, 01:02:01,VALID,917.49,VALID,0,VALID,99.1737,VALID,-0.0339617,VALID,20.0217,VALID,149,VALID,0.658346,
2004-01-17, 01:03:00,VALID,917.49,VALID,0,VALID,99.1597,VALID,-0.0339617,VALID,20.0249,VALID,143,VALID,0.930246,
2004-01-17, 01:04:01,VALID,917.485,VALID,0,VALID,99.2182,VALID,-0.0339617,VALID,20.0279,VALID,138,VALID,1.09375,
2004-01-17, 01:05:00,VALID,917.468,VALID,0,VALID,99.2907,VALID,0,VALID,20.0666,VALID,137,VALID,1.03125,
2004-01-17, 01:06:01,VALID,917.48,VALID,0,VALID,99.1406,VALID,-0.0679233,VALID,20.0704,VALID,134,VALID,0.882118,
2004-01-17, 01:07:00,VALID,917.46,VALID,0,VALID,99.058,VALID,-0.0169808,VALID,20.0706,VALID,142,VALID,1.04197,
2004-01-17, 01:08:00,VALID,917.446,VALID,0,VALID,99.0822,VALID,-0.0509425,VALID,20.0642,VALID,142,VALID,0.925604,
2004-01-17, 01:09:00,VALID,917.432,VALID,0,VALID,98.9881,VALID,-0.0679233,VALID,20.0738,VALID,138,VALID,0.76242,
2004-01-17, 01:10:01,VALID,917.411,VALID,0,VALID,98.899,VALID,-0.0169808,VALID,20.0574,VALID,139,VALID,0.73274,
2004-01-17, 01:11:01,VALID,917.4,VALID,0,VALID,98.9397,VALID,-0.0169808,VALID,20.0704,VALID,150,VALID,0.829427,
2004-01-17, 01:12:00,VALID,917.388,VALID,0,VALID,98.9194,VALID,-0.0169808,VALID,20.0731,VALID,147,VALID,0.69809,
2004-01-17, 01:13:00,VALID,917.393,VALID,0,VALID,98.7846,VALID,0,VALID,20.0863,VALID,138,VALID,0.551235,
2004-01-17, 01:14:00,VALID,917.39,VALID,0,VALID,98.5964,VALID,-0.0509425,VALID,20.0997,VALID,137,VALID,0.586119,
2004-01-17, 01:15:00,VALID,917.365,VALID,0,VALID,98.4018,VALID,-0.0339617,VALID,20.0965,VALID,137,VALID,0.571403,
2004-01-17, 01:16:00,VALID,917.349,VALID,0,VALID,98.3167,VALID,-0.0509425,VALID,20.0997,VALID,143,VALID,0.486683,
2004-01-17, 01:17:00,VALID,917.311,VALID,0,VALID,98.3014,VALID,-0.0509425,VALID,20.1193,VALID,145,VALID,0.350074,
2004-01-17, 01:18:00,VALID,917.291,VALID,0,VALID,98.2289,VALID,-0.0679233,VALID,20.122,VALID,145,VALID,0.31808,
2004-01-17, 01:19:01,VALID,917.265,VALID,0,VALID,98.1081,VALID,-0.0169808,VALID,20.128,VALID,145,VALID,0.311328,
2004-01-17, 01:20:00,VALID,917.251,VALID,0,VALID,97.9466,VALID,-0.0169808,VALID,20.125,VALID,145,VALID,0.41684,
2004-01-17, 01:21:00,VALID,917.238,VALID,0,VALID,97.9517,VALID,-0.0339617,VALID,20.1417,VALID,145,VALID,0.528582,
2004-01-17, 01:22:00,VALID,917.218,VALID,0,VALID,97.8881,VALID,-0.0509425,VALID,20.1384,VALID,145,VALID,0.399306,
2004-01-17, 01:23:01,VALID,917.202,VALID,0,VALID,97.8436,VALID,-0.0169808,VALID,20.1282,VALID,143,VALID,0.350038,
2004-01-17, 01:24:01,VALID,917.174,VALID,0,VALID,97.8563,VALID,-0.0509425,VALID,20.122,VALID,134,VALID,0.33774,
2004-01-17, 01:25:00,VALID,917.152,VALID,0,VALID,97.9199,VALID,-0.0509425,VALID,20.122,VALID,128,VALID,0.22793,
2004-01-17, 01:26:01,VALID,917.134,VALID,0,VALID,97.3579,VALID,-0.0679233,VALID,20.0674,VALID,128,VALID,0.250822,
2004-01-17, 01:27:01,VALID,917.111,VALID,0,VALID,96.5885,VALID,-0.0509425,VALID,19.9544,VALID,80,VALID,0.55506,
2004-01-17, 01:28:01,VALID,917.095,VALID,0,VALID,96.4092,VALID,-0.0849042,VALID,19.8421,VALID,50,VALID,0.736151,
2004-01-17, 01:29:01,VALID,917.065,VALID,0,VALID,96.97,VALID,-0.0849042,VALID,19.7805,VALID,48,VALID,0.685902,
2004-01-17, 01:30:00,VALID,917.041,VALID,0,VALID,97.5321,VALID,-0.101885,VALID,19.7902,VALID,53,VALID,0.714286,
2004-01-17, 01:31:00,VALID,917.007,VALID,0,VALID,98.1208,VALID,-0.101885,VALID,19.8297,VALID,78,VALID,0.950284,
2004-01-17, 01:32:00,VALID,916.982,VALID,0,VALID,98.0572,VALID,-0.101885,VALID,19.8292,VALID,87,VALID,0.690225,
2004-01-17, 01:33:00,VALID,916.944,VALID,0,VALID,98.1577,VALID,-0.0509425,VALID,19.8388,VALID,115,VALID,0.748633,
2004-01-17, 01:34:01,VALID,916.936,VALID,0,VALID,98.1017,VALID,-0.0679233,VALID,19.8391,VALID,120,VALID,1.16684,
2004-01-17, 01:35:00,VALID,916.901,VALID,0,VALID,98.2683,VALID,-0.0849042,VALID,19.8361,VALID,118,VALID,1.24503,
2004-01-17, 01:36:00,VALID,916.889,VALID,0,VALID,98.4425,VALID,-0.101885,VALID,19.855,VALID,121,VALID,1.40295,
2004-01-17, 01:37:00,VALID,916.891,VALID,0,VALID,98.6028,VALID,-0.0849042,VALID,19.8679,VALID,127,VALID,1.32722,
2004-01-17, 01:38:00,VALID,916.879,VALID,0,VALID,98.6485,VALID,-0.0679233,VALID,19.8704,VALID,123,VALID,1.15511,
2004-01-17, 01:39:01,VALID,916.89,VALID,0,VALID,98.7236,VALID,-0.0679233,VALID,19.8776,VALID,134,VALID,1.28307,
2004-01-17, 01:40:01,VALID,916.891,VALID,0,VALID,99.0198,VALID,-0.0849042,VALID,19.8868,VALID,122,VALID,1.33376,
2004-01-17, 01:41:00,VALID,916.892,VALID,0,VALID,99.1457,VALID,-0.0679233,VALID,19.9032,VALID,125,VALID,1.17791,
2004-01-17, 01:42:01,VALID,916.888,VALID,0,VALID,99.2157,VALID,-0.0679233,VALID,19.8873,VALID,118,VALID,1.25352,
2004-01-17, 01:43:01,VALID,916.874,VALID,0,VALID,99.2602,VALID,0.0339617,VALID,19.8597,VALID,123,VALID,0.946766,
2004-01-17, 01:44:00,VALID,916.867,VALID,0,VALID,99.4064,VALID,0.0169808,VALID,19.8441,VALID,129,VALID,0.824826,
2004-01-17, 01:45:00,VALID,916.869,VALID,0,VALID,99.4535,VALID,0.0509425,VALID,19.8309,VALID,88,VALID,0.635231,
2004-01-17, 01:46:01,VALID,916.849,VALID,0,VALID,99.5666,VALID,0.0339617,VALID,19.8212,VALID,124,VALID,0.861979,
2004-01-17, 01:47:01,VALID,916.841,VALID,0,VALID,99.6417,VALID,0.0339617,VALID,19.818,VALID,120,VALID,0.676669,
2004-01-17, 01:48:00,VALID,916.828,VALID,0,VALID,99.6836,VALID,0.0339617,VALID,19.8046,VALID,116,VALID,0.538504,
2004-01-17, 01:49:00,VALID,916.808,VALID,0,VALID,99.7294,VALID,0.0169808,VALID,19.8115,VALID,96,VALID,0.995536,
2004-01-17, 01:50:00,VALID,916.779,VALID,0,VALID,99.7637,VALID,0.0509425,VALID,19.8113,VALID,86,VALID,0.964311,
2004-01-17, 01:51:01,VALID,916.769,VALID,0,VALID,99.7981,VALID,0.0339617,VALID,19.8147,VALID,84,VALID,1.12138,
2004-01-17, 01:52:00,VALID,916.747,VALID,0,VALID,99.8553,VALID,0.0169808,VALID,19.8279,VALID,96,VALID,1.24037,
2004-01-17, 01:53:00,VALID,916.732,VALID,0,VALID,99.8388,VALID,0,VALID,19.8242,VALID,101,VALID,0.798735,
2004-01-17, 01:54:01,VALID,916.702,VALID,0,VALID,99.8108,VALID,0.0509425,VALID,19.8346,VALID,103,VALID,0.990371,
2004-01-17, 01:55:01,VALID,916.678,VALID,0,VALID,99.8159,VALID,0.0169808,VALID,19.8306,VALID,99,VALID,1.00362,
2004-01-17, 01:56:00,VALID,916.658,VALID,0,VALID,99.8006,VALID,0.0169808,VALID,19.8473,VALID,99,VALID,0.816939,
2004-01-17, 01:57:00,VALID,916.641,VALID,0,VALID,99.7879,VALID,0.0339617,VALID,19.857,VALID,105,VALID,0.932884,
2004-01-17, 01:58:00,VALID,916.621,VALID,0,VALID,99.7612,VALID,0,VALID,19.86,VALID,95,VALID,0.761991,
2004-01-17, 01:59:00,VALID,916.639,VALID,0,VALID,99.7358,VALID,0.0339617,VALID,19.896,VALID,99,VALID,0.658668,
2004-01-17, 02:00:00,VALID,916.653,VALID,0,VALID,99.6913,VALID,0.0509425,VALID,19.8855,VALID,94,VALID,0.652253,
2004-01-17, 02:01:00,VALID,916.687,VALID,0,VALID,99.6468,VALID,0.0339617,VALID,19.9156,VALID,97,VALID,0.929332,
2004-01-17, 02:02:00,VALID,916.715,VALID,0,VALID,99.5832,VALID,0.0169808,VALID,19.9121,VALID,76,VALID,0.586496,
2004-01-17, 02:03:00,VALID,916.722,VALID,0,VALID,99.5259,VALID,0.0339617,VALID,19.9149,VALID,103,VALID,0.633523,
2004-01-17, 02:04:00,VALID,916.72,VALID,0,VALID,99.4331,VALID,0.0169808,VALID,19.9151,VALID,101,VALID,0.692454,
2004-01-17, 02:05:01,VALID,916.712,VALID,0,VALID,99.3517,VALID,0.0169808,VALID,19.9149,VALID,124,VALID,0.939029,
2004-01-17, 02:06:00,VALID,916.708,VALID,0,VALID,99.3606,VALID,0.0169808,VALID,19.9216,VALID,129,VALID,1.06641,
2004-01-17, 02:07:00,VALID,916.68,VALID,0,VALID,99.3683,VALID,0,VALID,19.9144,VALID,132,VALID,1.21129,
2004-01-17, 02:08:00,VALID,916.671,VALID,0,VALID,99.2907,VALID,0.0169808,VALID,19.9178,VALID,130,VALID,1.07682,
2004-01-17, 02:09:01,VALID,916.665,VALID,0,VALID,99.2742,VALID,0.0169808,VALID,19.9017,VALID,122,VALID,1.3043,
2004-01-17, 02:10:00,VALID,916.653,VALID,0,VALID,99.264,VALID,0.0169808,VALID,19.8823,VALID,111,VALID,1.35486,
2004-01-17, 02:11:01,VALID,916.654,VALID,0,VALID,99.2767,VALID,0.0509425,VALID,19.8433,VALID,110,VALID,1.52455,
2004-01-17, 02:12:00,VALID,916.656,VALID,0,VALID,99.3403,VALID,0.0509425,VALID,19.815,VALID,108,VALID,1.33158,
2004-01-17, 02:13:00,VALID,916.643,VALID,0,VALID,99.4293,VALID,0.0169808,VALID,19.8021,VALID,113,VALID,1.23666,
2004-01-17, 02:14:00,VALID,916.626,VALID,0,VALID,99.5399,VALID,0.0169808,VALID,19.782,VALID,114,VALID,1.19497,
2004-01-17, 02:15:01,VALID,916.617,VALID,0,VALID,99.6175,VALID,0.0169808,VALID,19.7894,VALID,104,VALID,0.794034,
2004-01-17, 02:16:01,VALID,916.6,VALID,0,VALID,99.7281,VALID,0.0169808,VALID,19.7954,VALID,128,VALID,0.929116,
2004-01-17, 02:17:01,VALID,916.594,VALID,0,VALID,99.7765,VALID,0.0169808,VALID,19.8142,VALID,131,VALID,0.955487,
2004-01-17, 02:18:00,VALID,916.604,VALID,0,VALID,99.7955,VALID,0.0169808,VALID,19.8346,VALID,131,VALID,0.73601,
2004-01-17, 02:19:00,VALID,916.585,VALID,0,VALID,99.7828,VALID,0,VALID,19.8378,VALID,127,VALID,0.344336,
2004-01-17, 02:20:01,VALID,916.588,VALID,0,VALID,99.7396,VALID,0,VALID,19.8443,VALID,125,VALID,0.535764,
2004-01-17, 02:21:01,VALID,916.587,VALID,0,VALID,99.6709,VALID,0,VALID,19.8279,VALID,125,VALID,0.555618,
2004-01-17, 02:22:00,VALID,916.571,VALID,0,VALID,99.6582,VALID,0.0169808,VALID,19.8282,VALID,127,VALID,0.757994,
2004-01-17, 02:23:00,VALID,916.566,VALID,0,VALID,99.6582,VALID,0.0169808,VALID,19.8277,VALID,132,VALID,0.967115,
2004-01-17, 02:24:00,VALID,916.548,VALID,0,VALID,99.5717,VALID,0,VALID,19.8282,VALID,116,VALID,0.946948,
2004-01-17, 02:25:00,VALID,916.527,VALID,0,VALID,99.4649,VALID,0.0679233,VALID,19.8018,VALID,105,VALID,0.851376,
2004-01-17, 02:26:01,VALID,916.498,VALID,0,VALID,99.4255,VALID,0.0509425,VALID,19.7757,VALID,96,VALID,0.848474,
2004-01-17, 02:27:01,VALID,916.481,VALID,0,VALID,99.4992,VALID,0.0339617,VALID,19.7827,VALID,98,VALID,1.27865,
2004-01-17, 02:28:00,VALID,916.449,VALID,0,VALID,99.4789,VALID,0,VALID,19.7862,VALID,84,VALID,0.739397,
2004-01-17, 02:29:00,VALID,916.423,VALID,0,VALID,99.428,VALID,0.0339617,VALID,19.7929,VALID,89,VALID,0.779576,
2004-01-17, 02:30:00,VALID,916.401,VALID,0,VALID,99.4535,VALID,0.0169808,VALID,19.7993,VALID,107,VALID,0.828307,
2004-01-17, 02:31:00,VALID,916.384,VALID,0,VALID,99.4382,VALID,0.0169808,VALID,19.8152,VALID,118,VALID,1.00521,
2004-01-17, 02:32:00,VALID,916.369,VALID,0,VALID,99.3174,VALID,-0.0169808,VALID,19.8349,VALID,94,VALID,0.865451,
2004-01-17, 02:33:00,VALID,916.366,VALID,0,VALID,99.2729,VALID,-0.0339617,VALID,19.8443,VALID,126,VALID,0.721037,
2004-01-17, 02:34:00,VALID,916.353,VALID,0,VALID,99.1902,VALID,-0.0339617,VALID,19.8672,VALID,125,VALID,0.828646,
2004-01-17, 02:35:00,VALID,916.343,VALID,0,VALID,99.0249,VALID,-0.0169808,VALID,19.8769,VALID,113,VALID,0.750727,
2004-01-17, 02:36:01,VALID,916.337,VALID,0,VALID,98.9079,VALID,-0.0169808,VALID,19.9099,VALID,118,VALID,0.860352,
2004-01-17, 02:37:00,VALID,916.331,VALID,0,VALID,98.7693,VALID,0,VALID,19.9124,VALID,113,VALID,0.756597,
2004-01-17, 02:38:01,VALID,916.32,VALID,0,VALID,98.688,VALID,-0.0339617,VALID,19.9355,VALID,110,VALID,0.916159,
2004-01-17, 02:39:01,VALID,916.318,VALID,0,VALID,98.5379,VALID,-0.0169808,VALID,19.9648,VALID,106,VALID,0.986458,
2004-01-17, 02:40:01,VALID,916.3,VALID,0,VALID,98.4044,VALID,-0.0339617,VALID,19.9772,VALID,99,VALID,0.989931,
2004-01-17, 02:41:01,VALID,916.292,VALID,0,VALID,98.2175,VALID,0,VALID,19.9861,VALID,99,VALID,1.07441,
2004-01-17, 02:42:00,VALID,916.268,VALID,0,VALID,97.9619,VALID,-0.0169808,VALID,19.9988,VALID,93,VALID,1.03032,
2004-01-17, 02:43:00,VALID,916.248,VALID,0,VALID,97.588,VALID,0,VALID,20.0192,VALID,60,VALID,0.830273,
2004-01-17, 02:44:01,VALID,916.237,VALID,0,VALID,97.1964,VALID,0,VALID,19.9668,VALID,45,VALID,0.873857,
2004-01-17, 02:45:01,VALID,916.227,VALID,0,VALID,97.3426,VALID,0,VALID,19.9412,VALID,45,VALID,0.640988,
2004-01-17, 02:46:01,VALID,916.238,VALID,0,VALID,97.4888,VALID,-0.0169808,VALID,19.9283,VALID,45,VALID,0.551258,
2004-01-17, 02:47:00,VALID,916.233,VALID,0,VALID,97.5473,VALID,-0.0339617,VALID,19.929,VALID,45,VALID,0.408668,
2004-01-17, 02:48:01,VALID,916.243,VALID,0,VALID,97.5435,VALID,0,VALID,19.9029,VALID,45,VALID,0.331424,
2004-01-17, 02:49:01,VALID,916.265,VALID,0,VALID,97.5842,VALID,0,VALID,19.8764,VALID,45,VALID,0.429497,
2004-01-17, 02:50:01,VALID,916.277,VALID,0,VALID,97.6071,VALID,-0.0339617,VALID,19.8672,VALID,46,VALID,0.385975,
2004-01-17, 02:51:01,VALID,916.284,VALID,0,VALID,97.6262,VALID,-0.0169808,VALID,19.8513,VALID,48,VALID,0.482617,
2004-01-17, 02:52:00,VALID,916.299,VALID,0,VALID,97.6834,VALID,-0.0169808,VALID,19.8252,VALID,63,VALID,0.581076,
2004-01-17, 02:53:01,VALID,916.315,VALID,0,VALID,97.8017,VALID,-0.0169808,VALID,19.8023,VALID,97,VALID,0.641183,
2004-01-17, 02:54:01,VALID,916.318,VALID,0,VALID,97.8767,VALID,-0.0169808,VALID,19.812,VALID,126,VALID,0.864347,
2004-01-17, 02:55:00,VALID,916.318,VALID,0,VALID,97.8093,VALID,0,VALID,19.8284,VALID,123,VALID,0.799964,
2004-01-17, 02:56:01,VALID,916.307,VALID,0,VALID,97.6745,VALID,-0.0169808,VALID,19.8314,VALID,122,VALID,0.632102,
2004-01-17, 02:57:01,VALID,916.304,VALID,0,VALID,97.6109,VALID,-0.0169808,VALID,19.8376,VALID,119,VALID,0.739826,
2004-01-17, 02:58:01,VALID,916.301,VALID,0,VALID,97.5499,VALID,0,VALID,19.8739,VALID,115,VALID,0.791788,
2004-01-17, 02:59:01,VALID,916.283,VALID,0,VALID,97.4685,VALID,0,VALID,19.8833,VALID,115,VALID,0.658854,
2004-01-17, 03:00:00,VALID,916.274,VALID,0,VALID,97.3337,VALID,0,VALID,19.9027,VALID,115,VALID,0.599015,
2004-01-17, 03:01:01,VALID,916.258,VALID,0,VALID,97.2472,VALID,-0.0339617,VALID,19.8997,VALID,115,VALID,0.606105,
2004-01-17, 03:02:01,VALID,916.248,VALID,0,VALID,97.2828,VALID,-0.0169808,VALID,19.8895,VALID,111,VALID,0.642113,
2004-01-17, 03:03:01,VALID,916.243,VALID,0,VALID,97.4113,VALID,-0.0339617,VALID,19.8965,VALID,105,VALID,0.728051,
2004-01-17, 03:04:01,VALID,916.23,VALID,0,VALID,97.4685,VALID,0,VALID,19.9059,VALID,116,VALID,1.03906,
2004-01-17, 03:05:01,VALID,916.232,VALID,0,VALID,97.4825,VALID,-0.0339617,VALID,19.9188,VALID,118,VALID,1.11737,
2004-01-17, 03:06:01,VALID,916.22,VALID,0,VALID,97.2956,VALID,-0.0169808,VALID,19.9484,VALID,118,VALID,0.952035,
2004-01-17, 03:07:01,VALID,916.22,VALID,0,VALID,97.0959,VALID,0,VALID,19.9511,VALID,118,VALID,0.701705,
2004-01-17, 03:08:01,VALID,916.221,VALID,0,VALID,97.0972,VALID,-0.0169808,VALID,19.964,VALID,105,VALID,0.786754,
2004-01-17, 03:09:01,VALID,916.207,VALID,0,VALID,96.9827,VALID,0.0169808,VALID,20.006,VALID,108,VALID,0.766897,
2004-01-17, 03:10:01,VALID,916.194,VALID,0,VALID,96.633,VALID,0,VALID,20.0676,VALID,108,VALID,0.512251,
2004-01-17, 03:11:01,VALID,916.19,VALID,0,VALID,95.9464,VALID,0,VALID,20.09,VALID,108,VALID,0.25293,
2004-01-17, 03:12:01,VALID,916.197,VALID,0,VALID,95.7213,VALID,0,VALID,20.0438,VALID,108,VALID,0.389844,
2004-01-17, 03:13:01,VALID,916.191,VALID,0,VALID,96.0913,VALID,0,VALID,20.0147,VALID,108,VALID,0.47934,
2004-01-17, 03:14:01,VALID,916.184,VALID,0,VALID,96.4627,VALID,0.0169808,VALID,19.9986,VALID,112,VALID,0.915153,
2004-01-17, 03:15:01,VALID,916.179,VALID,0,VALID,96.7017,VALID,0,VALID,19.9921,VALID,115,VALID,1.12431,
2004-01-17, 03:16:01,VALID,916.175,VALID,0,VALID,96.5097,VALID,0.0339617,VALID,20.0346,VALID,117,VALID,1.19455,
2004-01-17, 03:17:01,VALID,916.153,VALID,0,VALID,96.1943,VALID,0,VALID,20.0858,VALID,119,VALID,1.26858,
2004-01-17, 03:18:01,VALID,916.143,VALID,0,VALID,95.7925,VALID,0,VALID,20.1538,VALID,110,VALID,1.10082,
2004-01-17, 03:19:01,VALID,916.131,VALID,0,VALID,95.4441,VALID,0,VALID,20.1956,VALID,113,VALID,1.05895,
2004-01-17, 03:20:01,VALID,916.136,VALID,0,VALID,95.1974,VALID,0.0169808,VALID,20.2214,VALID,112,VALID,0.879179,
2004-01-17, 03:21:01,VALID,916.134,VALID,0,VALID,95.1923,VALID,-0.0169808,VALID,20.2219,VALID,109,VALID,0.903832,
2004-01-17, 03:22:01,VALID,916.135,VALID,0,VALID,95.3716,VALID,0,VALID,20.1695,VALID,121,VALID,0.865141,
2004-01-17, 03:23:01,VALID,916.151,VALID,0,VALID,95.6145,VALID,0,VALID,20.1412,VALID,106,VALID,0.721484,
2004-01-17, 03:24:01,VALID,916.152,VALID,0,VALID,95.8307,VALID,0,VALID,20.1054,VALID,96,VALID,0.672602,
2004-01-17, 03:25:01,VALID,916.161,VALID,0,VALID,95.9807,VALID,0,VALID,20.0987,VALID,93,VALID,0.606445,
2004-01-17, 03:26:01,VALID,916.181,VALID,0,VALID,96.0227,VALID,0.0169808,VALID,20.0962,VALID,94,VALID,0.548828,
2004-01-17, 03:27:01,VALID,916.188,VALID,0,VALID,96.0786,VALID,0.0169808,VALID,20.0537,VALID,95,VALID,0.405859,
2004-01-17, 03:28:01,VALID,916.21,VALID,0,VALID,96.2592,VALID,-0.0169808,VALID,20.0179,VALID,95,VALID,0.345656,
2004-01-17, 03:29:01,VALID,916.217,VALID,0,VALID,96.5644,VALID,0,VALID,20.012,VALID,94,VALID,0.528054,
2004-01-17, 03:30:01,VALID,916.232,VALID,0,VALID,96.7297,VALID,-0.0509425,VALID,20.0187,VALID,70,VALID,0.711143,
2004-01-17, 03:31:00,VALID,916.233,VALID,0,VALID,96.6826,VALID,-0.0339617,VALID,20.0416,VALID,69,VALID,0.828307,
2004-01-17, 03:32:00,VALID,916.228,VALID,0,VALID,96.6076,VALID,-0.0169808,VALID,20.0507,VALID,80,VALID,0.958203,
2004-01-17, 03:33:00,VALID,916.213,VALID,0,VALID,96.4805,VALID,0,VALID,20.0766,VALID,93,VALID,0.897485,
2004-01-17, 03:34:00,VALID,916.204,VALID,0,VALID,96.1295,VALID,0,VALID,20.0728,VALID,107,VALID,0.736719,